TIME,DELAY(SENSOR),PRES,OXYGEN,RAWTEMP,T(OPTODE),TCPHASE,FLUOR,BETA(BETA700),BETA(BETA412),BETA(BETA440),CDOM,C(CSC),ED(ED412.20),ED(ED444.00),ED(ED489.60),ED(ED554.30),LU(LU412.10),LU(LU443.90),LU(LU489.70),LU(LU554.70),COMP,TILTX,TILTY,CHECK
1357181795,5810,886.7199707031250000,33.9834213256835940,562.0819702148438000,4.4213519096374510,56.4593505859375000,55,99,99,79,82,15551,0,0,0,0,2147122880,2147768731,2147577472,2147569846,2351,2,13,56176
1357185391,5806,969.2600097656250000,40.3192901611328100,569.0427856445312000,4.2053031921386720,55.5580482482910160,55,99,101,78,83,15552,0,0,0,0,2147122724,2147766930,2147578038,2147569554,517,2,13,15428
1357188991,5809,975.1099853515625000,42.9324417114257800,569.8538208007812000,4.1801052093505860,55.1802406311035160,55,97,100,78,83,15552,0,0,0,0,2147122715,2147771145,2147574445,2147568393,84,3,13,54031
1357192591,5811,979.7000122070312000,43.5405502319335940,571.0625000000000000,4.1425380706787110,55.1081199645996100,54,99,99,81,82,15546,0,0,0,0,2147121609,2147772132,2147574683,2147567808,3535,2,13,8956
1357196191,5809,987.0000000000000000,43.2794609069824200,570.8330078125000000,4.1496720314025880,55.1447105407714840,54,99,102,76,81,15546,0,0,0,0,2147122258,2147772818,2147573659,2147571657,128,2,13,31320
1357199791,5810,996.2199707031250000,42.4397201538085940,570.9965820312500000,4.1445879936218260,55.2645111083984400,54,100,100,77,81,15547,0,0,0,0,2147124105,2147768265,2147572315,2147568923,68,3,13,48641
1357203391,5809,999.1900024414062000,41.4394493103027340,569.5795288085938000,4.1886291503906250,55.3943290710449200,54,99,100,78,82,15546,0,0,0,0,2147122889,2147778185,2147574445,2147570505,3341,2,13,34667
1357206991,5810,1004.4099731445312000,41.4014816284179700,569.4343872070312000,4.1931338310241700,55.4027709960937500,55,100,100,79,81,15546,0,0,0,0,2147125467,2147774235,2147580964,2147566802,3261,3,13,17838
1357210591,5807,989.9400024414062000,41.1495590209960940,570.6248779296875000,4.1561388969421390,55.4523086547851560,54,101,100,78,82,15545,0,0,0,0,2147124333,2147768758,2147576740,2147569664,116,3,13,46752
1357214191,5810,995.4299926757812000,42.6426887512207000,570.6456298828125000,4.1554989814758300,55.2343597412109400,56,100,99,78,83,15546,0,0,0,0,2147121106,2147770614,2147573906,2147569152,294,2,13,16890
1357217791,5810,991.2999877929688000,42.5810890197753900,570.8779907226562000,4.1482729911804200,55.2465209960937500,56,99,100,78,81,15546,0,0,0,0,2147123236,2147768411,2147577316,2147571574,77,3,13,13700
1357221391,5810,1004.9099731445312000,42.9202919006347660,570.5747070312500000,4.1577000617980960,55.1932296752929700,54,100,100,78,81,15539,0,0,0,0,2147121152,2147768237,2147577728,2147570880,3411,3,13,25808
1357224991,5807,1001.7000122070312000,42.2970581054687500,570.4268188476562000,4.1622982025146480,55.2789192199707000,54,97,101,78,82,15544,0,0,0,0,2147126016,2147774555,2147576219,2147567561,211,2,13,8997
1357228591,5810,996.8900146484375000,42.2883911132812500,571.1257934570312000,4.1405701637268070,55.2867393493652340,55,99,100,78,81,15545,0,0,0,0,2147123081,2147769042,2147578102,2147567442,247,3,13,52728
1357232191,5808,992.6599731445312000,42.5037307739257800,572.7368774414062000,4.0904769897460940,55.2764587402343750,54,99,99,77,82,15540,0,0,0,0,2147122633,2147771108,2147579090,2147571419,81,3,13,23730
1357235791,5809,996.9799804687500000,42.4394912719726560,572.9840698242188000,4.0827898979187010,55.2917900085449200,54,97,102,79,83,15541,0,0,0,0,2147123245,2147771446,2147573750,2147568722,3513,2,13,35218
1357239391,5807,996.0800170898438000,42.1794204711914060,573.0494995117188000,4.0807571411132810,55.3284111022949200,55,96,99,78,82,15521,0,0,0,0,2147122907,2147770368,2147575204,2147569929,149,2,13,54565
1357242991,5809,1001.4099731445312000,42.7784118652343750,572.3466796875000000,4.1026129722595215,55.2340583801269500,55,99,100,78,82,15540,0,0,0,0,2147122880,2147771465,2147577664,2147569536,200,2,13,34955
1357246591,5810,996.1099853515625000,42.4556884765625000,572.2999267578125000,4.1040692329406740,55.2794799804687500,56,99,100,77,82,15541,0,0,0,0,2147126253,2147767350,2147576054,2147568749,3531,3,13,2790
1357250191,5811,999.5399780273438000,42.7711486816406250,572.2875976562500000,4.1044502258300780,55.2312583923339840,55,97,99,78,82,15541,0,0,0,0,2147124443,2147769289,2147574363,2147567862,126,3,13,46018
1357253791,5806,998.0599975585938000,42.4349899291992200,572.3013916015625000,4.1040210723876950,55.2780113220214840,54,100,101,78,82,15537,0,0,0,0,2147125083,2147771108,2147571584,2147570761,397,2,13,34921
1357257391,5807,997.2399902343750000,42.1011695861816400,572.8690185546875000,4.0863699913024900,55.3352813720703100,55,98,100,80,83,15537,0,0,0,0,2147127762,2147768384,2147578907,2147568475,278,3,13,13537
1357260991,5811,1003.3300170898438000,42.3105316162109400,572.3613891601562000,4.1021561622619630,55.3020095825195300,55,99,101,77,82,15537,0,0,0,0,2147124425,2147765659,2147578788,2147569865,373,2,13,25476
1357264591,5810,1001.0300292968750000,42.3851013183593750,572.1652832031250000,4.1082530021667480,55.2861709594726560,55,100,101,78,83,15538,0,0,0,0,2147125056,2147771520,2147576731,2147568758,322,3,13,12667
1357268191,5812,997.5700073242188000,42.1333389282226560,572.2468261718750000,4.1057209968566895,55.3257484436035160,54,98,101,78,83,15536,0,0,0,0,2147122569,2147771254,2147572699,2147571437,3590,3,13,47012
1357271791,5808,996.0200195312500000,42.1753196716308600,572.8488769531250000,4.0869960784912110,55.3285789489746100,56,98,100,79,83,15536,0,0,0,0,2147122148,2147769810,2147576667,2147570486,471,3,13,25418
1357275391,5809,1000.7399902343750000,42.6026611328125000,572.7794189453125000,4.0891571044921875,55.2636718750000000,55,98,100,77,81,15531,0,0,0,0,2147124809,2147769014,2147576758,2147568182,3259,3,13,16385
1357278991,5811,1005.0700073242188000,42.7891006469726560,572.6682739257812000,4.0926132202148440,55.2356491088867200,54,98,100,77,81,15528,0,0,0,0,2147126208,2147767954,2147573101,2147572342,3062,2,13,65425
1357282591,5810,1002.8200073242188000,42.6003608703613300,572.6809082031250000,4.0922198295593260,55.2619285583496100,54,96,100,77,81,15527,0,0,0,0,2147125897,2147769033,2147579437,2147567835,3563,2,13,62633
1357286191,5811,1000.6500244140625000,42.4265518188476560,572.7504882812500000,4.0900540351867680,55.2882614135742200,54,99,102,78,82,15527,0,0,0,0,2147126272,2147769572,2147579904,2147569106,3512,3,13,7552
1357289791,5812,1009.8499755859375000,42.8950309753418000,571.1118774414062000,4.1410012245178220,55.2022209167480500,55,99,100,77,81,15523,0,0,0,0,2147124580,2147767085,2147576228,2147571611,3581,3,13,14859
1357293391,5810,1011.5200195312500000,42.2828292846679700,570.7493286132812000,4.1522731781005860,55.2836112976074200,55,97,100,78,83,15526,0,0,0,0,2147123821,2147767579,2147576256,2147569362,3444,2,13,59881
1357296991,5807,1008.5300292968750000,40.8454895019531250,570.9160766601562000,4.1470870971679690,55.5006294250488300,55,98,99,78,81,15523,0,0,0,0,2147124260,2147771172,2147577590,2147568713,209,3,13,10698
1357300591,5812,1002.8699951171875000,40.8432998657226560,570.7775878906250000,4.1513919830322270,55.4972114562988300,55,99,100,77,82,15522,0,0,0,0,2147125412,2147771940,2147579090,2147569572,3254,3,13,47670
1357304191,5811,997.1599731445312000,42.5190086364746100,571.6655273437500000,4.1237950325012210,55.2604484558105500,55,100,100,77,82,15521,0,0,0,0,2147124781,2147768576,2147575716,2147570587,3566,2,13,31256
1357307791,5814,1002.9199829101562000,42.6886405944824200,571.9437866210938000,4.1151390075683590,55.2399215698242200,54,98,99,78,82,15520,0,0,0,0,2147124352,2147764068,2147576676,2147572516,34,2,13,50822
1357311391,5810,1006.4199829101562000,42.7967491149902340,571.8098754882812000,4.1193032264709470,55.2194213867187500,55,98,99,78,81,15522,0,0,0,0,2147123044,2147769984,2147573933,2147571209,246,3,13,63382
1357314991,5808,1008.8599853515625000,42.4937286376953100,571.7686767578125000,4.1205830574035645,55.2695083618164060,54,98,101,78,82,15522,0,0,0,0,2147123510,2147772992,2147577188,2147569846,263,3,13,54877
1357318591,5810,1000.3200073242188000,42.5887985229492200,572.2490844726562000,4.1056461334228520,55.2566108703613300,55,98,100,80,82,15520,0,0,0,0,2147124708,2147769874,2147574930,2147573632,226,2,13,4366
1357322191,5809,999.1199951171875000,42.2475509643554700,572.6566772460938000,4.0929741859436035,55.3097496032714840,55,98,100,79,82,15522,0,0,0,0,2147123072,2147771821,2147577856,2147571245,3470,3,13,21271
1357325791,5809,1003.1099853515625000,42.9210891723632800,572.5369873046875000,4.0966949462890625,55.2120704650878900,56,97,99,78,82,15441,0,0,0,0,2147125531,2147768832,2147581147,2147571163,3439,3,13,21767
1357326956,5811,999.7700195312500000,42.7174491882324200,572.4652709960938000,4.0989232063293460,55.2408981323242200,54,100,100,78,82,15446,0,0,0,0,2147122898,2147772096,2147574034,2147572489,103,3,13,18829
